KE8URB Weather Reports


time (UTC)temp
C
wind
direction
speed
KPH
gust
KPH
rain 1hr
cm
rain 24hr
cm
rain mn
cm
humidity
%
barometer
mb
20260505152904 19 253 16.1 25.7 0.00 0.00 0.00 69 1008.6
20260505152402 19 196 20.9 32.2 0.00 0.00 0.00 69 1008.7
20260505151901 19 163 11.3 16.1 0.00 0.00 0.00 70 1008.7
20260505151358 18 235 6.4 9.7 0.00 0.00 0.00 71 1008.5
20260505150855 18 171 12.9 17.7 0.00 0.00 0.00 70 1008.3
20260505150353 19 158 16.1 20.9 0.00 0.00 0.00 71 1008.3
20260505140323 16 168 4.8 4.8 0.00 0.00 0.00 82 1008.5
20260505130246 16 199 12.9 14.5 0.00 0.00 0.00 77 1007.6
20260505124736 16 215 11.3 12.9 0.00 0.00 0.00 76 1008.0
20260505124233 16 185 9.7 11.3 0.00 0.00 0.00 75 1008.0
20260505123729 16 196 17.7 24.1 0.00 0.00 0.00 74 1007.7
20260505123226 16 206 12.9 14.5 0.00 0.00 0.00 75 1007.6
20260505122722 16 154 6.4 8.0 0.00 0.00 0.00 75 1007.5
20260505122220 16 175 9.7 11.3 0.00 0.00 0.00 75 1007.4
20260505121716 16 182 9.7 14.5 0.00 0.00 0.00 75 1008.0
20260505121213 16 199 9.7 14.5 0.00 0.00 0.00 75 1007.9
20260505120709 16 187 8.0 9.7 0.00 0.00 0.00 75 1007.6
20260505120206 16 190 9.7 11.3 0.00 0.00 0.00 74 1007.7
20260505115704 16 208 9.7 11.3 0.00 0.00 0.00 75 1007.6
20260505115203 16 188 11.3 12.9 0.00 0.00 0.00 75 1007.6
20260505114700 16 209 9.7 11.3 0.00 0.00 0.00 75 1007.6
20260505114155 16 180 9.7 11.3 0.00 0.00 0.00 74 1007.7
20260505113652 16 190 14.5 17.7 0.00 0.00 0.00 75 1007.7
20260505113149 16 191 9.7 11.3 0.00 0.00 0.00 75 1007.6
20260505112645 16 205 14.5 17.7 0.00 0.00 0.00 75 1007.5
20260505112143 16 208 6.4 9.7 0.00 0.00 0.00 76 1007.6
20260505111642 16 193 4.8 4.8 0.00 0.00 0.00 76 1007.7
20260505111139 16 182 12.9 14.5 0.00 0.00 0.00 75 1007.6
20260505110635 16 195 6.4 9.7 0.00 0.00 0.00 75 1007.5
20260505110133 16 194 9.7 12.9 0.00 0.00 0.00 75 1007.5
20260505102108 16 202 16.1 17.7 0.00 0.00 0.00 75 1007.4
20260505101607 16 171 8.0 9.7 0.00 0.00 0.00 75 1007.2
20260505101102 16 196 8.0 11.3 0.00 0.00 0.00 75 1006.9
20260505100559 16 185 11.3 14.5 0.00 0.00 0.00 74 1007.2
20260505100056 16 167 12.9 16.1 0.00 0.00 0.00 75 1007.2
20260505095552 16 166 11.3 14.5 0.00 0.00 0.00 74 1006.9
20260505095049 16 182 16.1 17.7 0.00 0.00 0.00 74 1007.0
20260505094545 16 180 8.0 9.7 0.00 0.00 0.00 73 1006.9
20260505094041 16 187 11.3 12.9 0.00 0.00 0.00 73 1006.9
20260505093538 16 179 8.0 9.7 0.00 0.00 0.00 73 1006.7
20260505093036 16 217 11.3 12.9 0.00 0.00 0.00 73 1006.6
20260505092533 17 202 9.7 14.5 0.00 0.00 0.00 73 1006.7
20260505092031 17 211 6.4 9.7 0.00 0.00 0.00 72 1006.6
20260505091527 17 191 9.7 14.5 0.00 0.00 0.00 71 1006.6
20260505091027 16 187 9.7 22.5 0.00 0.00 0.00 73 1006.5
20260505090524 17 199 6.4 8.0 0.00 0.00 0.00 72 1006.6
20260505090021 17 187 3.2 3.2 0.00 0.00 0.00 72 1006.3
20260505085519 17 195 4.8 8.0 0.00 0.00 0.00 72 1006.5
20260505085017 16 269 8.0 11.3 0.00 0.00 0.00 73 1006.4
20260505084515 17 280 4.8 9.7 0.00 0.00 0.00 72 1006.4
20260505084013 17 205 4.8 4.8 0.00 0.00 0.00 73 1006.5
20260505083510 17 216 6.4 8.0 0.00 0.00 0.00 71 1006.4
20260505083006 17 179 3.2 8.0 0.00 0.00 0.00 71 1006.4
20260505082502 17 200 11.3 12.9 0.00 0.00 0.00 71 1006.4
20260505081959 17 232 9.7 12.9 0.00 0.00 0.00 71 1006.2
20260505081456 17 176 11.3 16.1 0.00 0.00 0.00 72 1006.3
20260505080952 17 192 9.7 14.5 0.00 0.00 0.00 72 1006.1
20260505080448 17 192 8.0 9.7 0.00 0.00 0.00 72 1006.1
20260505075944 17 218 4.8 9.7 0.00 0.00 0.00 72 1006.2
20260505075441 17 179 11.3 16.1 0.00 0.00 0.00 72 1005.9
20260505074938 17 197 11.3 16.1 0.00 0.00 0.00 72 1006.0
20260505074436 17 198 8.0 9.7 0.00 0.00 0.00 72 1005.8
20260505073932 17 188 6.4 8.0 0.00 0.00 0.00 72 1006.0
20260505073430 17 174 8.0 9.7 0.00 0.00 0.00 71 1005.9
20260505072927 17 166 8.0 9.7 0.00 0.00 0.00 70 1005.7
20260505072423 17 191 11.3 14.5 0.00 0.00 0.00 70 1005.8
20260505071919 17 203 12.9 14.5 0.00 0.00 0.00 70 1005.5
20260505071416 17 173 11.3 12.9 0.00 0.00 0.00 70 1005.6
20260505070914 17 196 12.9 14.5 0.00 0.00 0.00 70 1005.7
20260505070410 17 158 11.3 12.9 0.00 0.00 0.00 69 1005.9
20260505065906 17 180 8.0 9.7 0.00 0.00 0.00 69 1005.6
20260505065402 17 181 12.9 14.5 0.00 0.00 0.00 69 1005.7
20260505064859 17 213 9.7 11.3 0.00 0.00 0.00 68 1005.8
20260505064356 17 201 16.1 24.1 0.00 0.00 0.00 69 1005.6
20260505063855 17 176 12.9 14.5 0.00 0.00 0.00 69 1005.8
20260505063355 18 176 9.7 12.9 0.00 0.00 0.00 68 1005.6
20260505062852 17 175 14.5 20.9 0.00 0.00 0.00 69 1005.7
20260505062350 17 205 16.1 20.9 0.00 0.00 0.00 69 1005.9
20260505061846 18 198 16.1 20.9 0.00 0.00 0.00 69 1005.8
20260505061344 18 182 11.3 12.9 0.00 0.00 0.00 69 1005.7
20260505060842 17 178 14.5 20.9 0.00 0.00 0.00 70 1006.2
20260505060338 17 191 11.3 14.5 0.00 0.00 0.00 72 1006.1
20260505055834 17 195 16.1 17.7 0.00 0.00 0.00 72 1006.2
20260505055330 17 207 8.0 11.3 0.00 0.00 0.00 72 1006.0
20260505054828 17 189 8.0 11.3 0.00 0.00 0.00 71 1006.4
20260505054325 17 179 14.5 16.1 0.00 0.00 0.00 71 1006.3
20260505053823 17 203 9.7 12.9 0.00 0.00 0.00 71 1006.5
20260505053320 18 187 14.5 16.1 0.00 0.00 0.00 70 1006.4
20260505052817 18 207 14.5 20.9 0.00 0.00 0.00 70 1006.5
20260505052314 18 196 9.7 11.3 0.00 0.00 0.00 69 1006.6
20260505051811 18 189 14.5 20.9 0.00 0.00 0.00 69 1006.6
20260505051308 18 220 9.7 11.3 0.00 0.00 0.00 69 1006.7
20260505050806 18 178 12.9 14.5 0.00 0.00 0.00 69 1006.7
20260505050305 18 180 12.9 17.7 0.00 0.00 0.00 68 1006.6
20260505041734 18 173 17.7 22.5 0.00 0.00 0.00 68 1006.7
20260505041231 18 196 12.9 17.7 0.00 0.00 0.00 69 1006.6
20260505040729 18 229 14.5 16.1 0.00 0.00 0.00 69 1006.4
20260505040226 18 211 9.7 12.9 0.00 0.00 0.00 69 1006.8
20260505035723 18 191 9.7 12.9 0.00 0.00 0.00 69 1006.8
20260505035219 18 191 11.3 14.5 0.00 0.00 0.00 69 1006.9
20260505034716 18 210 19.3 24.1 0.00 0.00 0.00 69 1006.8
20260505034213 18 206 14.5 17.7 0.00 0.00 0.00 69 1006.8
20260505033709 18 175 11.3 12.9 0.00 0.00 0.00 69 1006.7
20260505033207 18 187 11.3 12.9 0.00 0.00 0.00 69 1006.8
20260505032705 18 204 17.7 17.7 0.00 0.00 0.00 69 1006.9
20260505032200 18 198 17.7 20.9 0.00 0.00 0.00 69 1006.9
20260505031658 18 199 14.5 17.7 0.00 0.00 0.00 69 1006.8
20260505031154 17 181 14.5 16.1 0.00 0.00 0.00 69 1006.9
20260505030651 17 155 4.8 9.7 0.00 0.00 0.00 70 1007.0
20260505030147 17 181 9.7 12.9 0.00 0.00 0.00 70 1006.7
20260505025643 17 175 3.2 4.8 0.00 0.00 0.00 70 1007.0
20260505025142 17 186 9.7 14.5 0.00 0.00 0.00 69 1006.7
20260505024639 17 202 11.3 12.9 0.00 0.00 0.00 69 1006.9
20260505024136 18 182 11.3 14.5 0.00 0.00 0.00 68 1006.8
20260505023634 17 168 6.4 8.0 0.00 0.00 0.00 69 1006.7
20260505023131 17 177 9.7 11.3 0.00 0.00 0.00 68 1006.9
20260505022628 17 201 8.0 11.3 0.00 0.00 0.00 69 1006.9
20260505022125 17 196 11.3 16.1 0.00 0.00 0.00 69 1007.0
20260505021621 17 196 12.9 16.1 0.00 0.00 0.00 68 1007.2
20260505021118 17 172 8.0 9.7 0.00 0.00 0.00 68 1007.0
20260505020614 17 175 6.4 8.0 0.00 0.00 0.00 68 1007.2
20260505020110 17 205 11.3 16.1 0.00 0.00 0.00 68 1007.0
20260505015608 17 204 4.8 8.0 0.00 0.00 0.00 67 1006.9
20260505015104 17 180 8.0 11.3 0.00 0.00 0.00 67 1006.9
20260505014601 18 191 6.4 8.0 0.00 0.00 0.00 67 1006.9
20260505014058 17 204 11.3 16.1 0.00 0.00 0.00 67 1006.8
20260505013555 18 167 8.0 11.3 0.00 0.00 0.00 67 1006.9
20260505013052 18 195 8.0 9.7 0.00 0.00 0.00 67 1006.7
20260505012550 18 172 8.0 11.3 0.00 0.00 0.00 67 1006.9
20260505012047 18 177 8.0 12.9 0.00 0.00 0.00 66 1006.8
20260505011543 18 191 8.0 9.7 0.00 0.00 0.00 66 1006.9
20260505011040 18 196 8.0 9.7 0.00 0.00 0.00 66 1006.7
20260505010535 18 172 9.7 12.9 0.00 0.00 0.00 66 1006.7
20260505010032 18 191 9.7 12.9 0.00 0.00 0.00 66 1006.7
20260505005529 18 200 12.9 16.1 0.00 0.00 0.00 66 1006.7
20260505005026 18 167 8.0 12.9 0.00 0.00 0.00 65 1006.7
20260505004523 18 196 11.3 12.9 0.00 0.00 0.00 65 1006.5
20260505004020 18 193 9.7 11.3 0.00 0.00 0.00 66 1006.4
20260505003517 18 192 11.3 12.9 0.00 0.00 0.00 65 1006.6
20260505003014 18 188 9.7 12.9 0.00 0.00 0.00 66 1006.7
20260505002509 18 175 8.0 9.7 0.00 0.00 0.00 66 1006.6
20260505002008 18 206 8.0 9.7 0.00 0.00 0.00 65 1006.4
20260505001505 18 200 9.7 12.9 0.00 0.00 0.00 64 1006.4
20260505001002 18 190 11.3 11.3 0.00 0.00 0.00 64 1006.3
20260505000500 18 197 16.1 22.5 0.00 0.00 0.00 64 1006.3
20260504235957 18 199 6.4 11.3 0.00 0.00 0.00 64 1006.3
20260504235454 19 200 8.0 12.9 0.00 0.00 0.00 63 1006.2
20260504234950 19 218 11.3 16.1 0.00 0.00 0.00 63 1006.5
20260504234448 20 196 4.8 8.0 0.00 0.00 0.00 63 1006.4
20260504233944 20 185 12.9 16.1 0.00 0.00 0.00 61 1006.3
20260504233440 20 202 17.7 22.5 0.00 0.00 0.00 61 1006.3
20260504232937 20 191 6.4 8.0 0.00 0.00 0.00 61 1006.1
20260504232434 20 186 14.5 22.5 0.00 0.00 0.00 60 1006.2
20260504231931 20 180 20.9 24.1 0.00 0.00 0.00 59 1006.3
20260504231427 20 190 14.5 17.7 0.00 0.00 0.00 60 1006.2
20260504230924 20 200 19.3 24.1 0.00 0.00 0.00 59 1006.4
20260504230421 20 195 9.7 11.3 0.00 0.00 0.00 61 1006.5
20260504225920 20 186 8.0 9.7 0.00 0.00 0.00 62 1006.6
20260504225416 20 259 8.0 16.1 0.00 0.00 0.00 61 1006.6
20260504224914 20 190 9.7 11.3 0.00 0.00 0.00 61 1006.5
20260504224410 20 191 8.0 8.0 0.00 0.00 0.00 60 1006.4
20260504223907 20 260 11.3 14.5 0.00 0.00 0.00 61 1006.6
20260504223402 20 190 8.0 11.3 0.00 0.00 0.00 61 1006.3
20260504222859 21 191 6.4 11.3 0.00 0.00 0.00 59 1006.4
20260504222356 21 228 14.5 16.1 0.00 0.00 0.00 59 1006.5
20260504221854 21 171 11.3 14.5 0.00 0.00 0.00 60 1006.6
20260504221350 21 187 11.3 16.1 0.00 0.00 0.00 59 1006.3
20260504220848 21 210 17.7 22.5 0.00 0.00 0.00 57 1006.4
20260504220344 21 199 20.9 27.4 0.00 0.00 0.00 58 1006.6
20260504215842 21 210 11.3 17.7 0.00 0.00 0.00 59 1006.6
20260504215338 21 159 16.1 17.7 0.00 0.00 0.00 58 1006.7
20260504214834 21 221 9.7 12.9 0.00 0.00 0.00 58 1006.7
20260504214331 21 201 25.7 33.8 0.00 0.00 0.00 58 1006.7
20260504213828 21 212 22.5 27.4 0.00 0.00 0.00 57 1006.6
20260504213323 21 202 11.3 12.9 0.00 0.00 0.00 60 1006.6
20260504212821 21 193 9.7 12.9 0.00 0.00 0.00 59 1006.7
20260504212317 21 177 22.5 25.7 0.00 0.00 0.00 58 1006.5
20260504211815 21 232 9.7 11.3 0.00 0.00 0.00 58 1006.7
20260504211311 22 223 8.0 9.7 0.00 0.00 0.00 60 1006.6
20260504210809 22 203 14.5 17.7 0.00 0.00 0.00 58 1006.9
20260504210306 22 202 24.1 35.4 0.00 0.00 0.00 57 1006.6
20260504205803 21 228 12.9 14.5 0.00 0.00 0.00 58 1006.8
20260504205300 21 271 12.9 17.7 0.00 0.00 0.00 58 1006.7
20260504204758 20 184 11.3 12.9 0.00 0.00 0.00 61 1006.8
20260504204256 21 202 22.5 27.4 0.00 0.00 0.00 58 1006.9
20260504203755 21 184 16.1 17.7 0.00 0.00 0.00 58 1006.7
20260504203253 22 171 9.7 12.9 0.00 0.00 0.00 57 1006.6
20260504202753 22 263 17.7 25.7 0.00 0.00 0.00 59 1006.7
20260504202250 22 267 17.7 24.1 0.00 0.00 0.00 58 1006.6
20260504201747 22 258 22.5 24.1 0.00 0.00 0.00 58 1006.7
20260504201244 22 202 6.4 9.7 0.00 0.00 0.00 58 1006.7
20260504200742 22 271 12.9 16.1 0.00 0.00 0.00 57 1006.6
20260504200237 22 214 8.0 11.3 0.00 0.00 0.00 59 1006.7
20260504195734 20 198 4.8 9.7 0.00 0.00 0.00 62 1006.8
20260504195230 20 200 11.3 17.7 0.00 0.00 0.00 61 1007.0
20260504194728 21 176 12.9 14.5 0.00 0.00 0.00 59 1007.1
20260504194223 21 198 11.3 16.1 0.00 0.00 0.00 58 1007.2
20260504193720 21 176 11.3 12.9 0.00 0.00 0.00 60 1007.0
20260504193218 21 196 16.1 24.1 0.00 0.00 0.00 60 1007.3
20260504192716 21 204 12.9 17.7 0.00 0.00 0.00 57 1007.6
20260504192214 21 182 9.7 12.9 0.00 0.00 0.00 59 1007.1
20260504191712 21 176 9.7 14.5 0.00 0.00 0.00 59 1007.4
20260504191209 21 240 4.8 8.0 0.00 0.00 0.00 60 1007.3
20260504190704 21 184 9.7 11.3 0.00 0.00 0.00 58 1007.5
20260504190200 21 189 17.7 24.1 0.00 0.00 0.00 59 1007.6
20260504185657 21 180 6.4 8.0 0.00 0.00 0.00 61 1007.4
20260504185153 21 190 19.3 22.5 0.00 0.00 0.00 60 1007.9
20260504184650 21 188 6.4 9.7 0.00 0.00 0.00 65 1007.9
20260504184145 20 219 8.0 14.5 0.00 0.00 0.00 61 1007.6
20260504183642 20 208 17.7 22.5 0.00 0.00 0.00 59 1007.9
20260504183139 20 201 8.0 9.7 0.00 0.00 0.00 62 1008.0
20260504182637 20 194 19.3 24.1 0.00 0.00 0.00 61 1007.7
20260504182134 20 191 9.7 12.9 0.00 0.00 0.00 63 1007.9
20260504181632 20 166 6.4 9.7 0.00 0.00 0.00 63 1008.1
20260504181129 20 189 22.5 27.4 0.00 0.00 0.00 61 1007.9
20260504180628 19 204 11.3 16.1 0.00 0.00 0.00 61 1008.1
20260504180126 20 179 16.1 20.9 0.00 0.00 0.00 62 1008.2
20260504175623 20 195 8.0 12.9 0.00 0.00 0.00 63 1008.2
20260504175120 20 184 8.0 11.3 0.00 0.00 0.00 63 1008.1
20260504174618 20 185 11.3 14.5 0.00 0.00 0.00 62 1008.1
20260504174114 19 173 11.3 12.9 0.00 0.00 0.00 63 1008.1
20260504173611 19 187 14.5 17.7 0.00 0.00 0.00 63 1008.4
20260504173109 18 200 11.3 12.9 0.00 0.00 0.00 64 1008.5
20260504172605 19 188 14.5 17.7 0.00 0.00 0.00 63 1008.5
20260504172102 18 189 8.0 11.3 0.00 0.00 0.00 62 1008.6
20260504171558 18 186 9.7 11.3 0.00 0.00 0.00 60 1008.6
20260504171055 18 179 11.3 14.5 0.00 0.00 0.00 62 1008.7
20260504170551 18 167 11.3 16.1 0.00 0.00 0.00 62 1008.7